Jade — 9HVS8 — position and weather

sailwx.info

Track history (hours):
 
Tides and Currents Weather Stations Pressure Air Temp Water Temp Dewpoint Dewpoint Depression Visibility Wind Speed Wind Dir Waves Ship Positions

Jade

Last reported at 2016-May-26 15:33 UTC. Time now 2016-Jun-26 04:46 UTC.
Position N 37°27' E 025°52'.
Warning: this ship's position is 30 days out of date.

Length 176 m; draft 11.1 m.

Type: Ship (hazmat cat C). MMSI: 256491000.

Date/timePositionNaut miles runAvg speedWind from/ knotsBaromVisibWave heightAir tempDewpointWater temp
2016-May-26 15:33N 37°27' E 025°52'239 6.8
2016-May-25 04:20N 40°47' E 028°41'1012.0
2016-May-25 03:31N 40°54' E 028°49'4 0.6
2016-May-24 21:32N 40°56' E 028°54'304 9.7
2016-May-23 14:18N 43°54' E 034°27'1012.9
2016-May-23 13:33N 43°59' E 034°39'1313.0
2016-May-23 12:33N 44°06' E 034°54'2612.9
2016-May-23 10:33N 44°20' E 035°24'1313.2
2016-May-23 09:33N 44°27' E 035°39'4012.2
2016-May-23 06:17N 44°49' E 036°26'912.6
2016-May-23 05:33N 44°58' E 036°29'9 8.8
2016-May-23 04:34N 45°05' E 036°37'3 0.1
2016-May-21 21:05N 45°07' E 036°40'1 2.2
2016-May-21 20:33N 45°07' E 036°38'5 5.0
2016-May-21 19:33N 45°02' E 036°37'8 7.8
2016-May-21 18:33N 44°54' E 036°37'4 3.5
2016-May-21 17:29N 44°50' E 036°37'0 0.0
2016-May-21 16:29N 44°50' E 036°37'0 0.0
2016-May-21 15:32N 44°50' E 036°37'0 0.0
2016-May-21 14:32N 44°50' E 036°37'0 0.0
2016-May-21 13:32N 44°50' E 036°37'0 0.0
2016-May-21 12:32N 44°50' E 036°37'0 0.0
2016-May-21 11:23N 44°50' E 036°37'0 0.0
2016-May-21 10:32N 44°50' E 036°37'0 0.1
2016-May-21 09:17N 44°50' E 036°37'0 0.0
2016-May-21 08:11N 44°50' E 036°37'0 0.0
2016-May-21 07:17N 44°50' E 036°37'0 0.0
2016-May-21 06:29N 44°50' E 036°37'  
2016-May-17 12:29N 44°50' E 036°37'36 5.7
2016-May-17 06:08N 44°15' E 036°25'813.6
2016-May-17 05:30N 44°11' E 036°16'  
Track history (hours):
 
Tides and Currents Weather Stations Pressure Air Temp Water Temp Dewpoint Dewpoint Depression Visibility Wind Speed Wind Dir Waves Ship Positions

Jade

Last reported at 2016-May-26 15:33 UTC. Time now 2016-Jun-26 04:46 UTC.
Position N 37°27' E 025°52'.
Warning: this ship's position is 30 days out of date.

Length 176 m; draft 11.1 m.

Type: Ship (hazmat cat C). MMSI: 256491000.

Date/timePositionNaut miles runAvg speedWind from/ knotsBaromVisibWave heightAir tempDewpointWater temp
2016-May-26 15:33N 37°27' E 025°52'239 6.8
2016-May-25 04:20N 40°47' E 028°41'1012.0
2016-May-25 03:31N 40°54' E 028°49'4 0.6
2016-May-24 21:32N 40°56' E 028°54'304 9.7
2016-May-23 14:18N 43°54' E 034°27'1012.9
2016-May-23 13:33N 43°59' E 034°39'1313.0
2016-May-23 12:33N 44°06' E 034°54'2612.9
2016-May-23 10:33N 44°20' E 035°24'1313.2
2016-May-23 09:33N 44°27' E 035°39'4012.2
2016-May-23 06:17N 44°49' E 036°26'912.6
2016-May-23 05:33N 44°58' E 036°29'9 8.8
2016-May-23 04:34N 45°05' E 036°37'3 0.1
2016-May-21 21:05N 45°07' E 036°40'1 2.2
2016-May-21 20:33N 45°07' E 036°38'5 5.0
2016-May-21 19:33N 45°02' E 036°37'8 7.8
2016-May-21 18:33N 44°54' E 036°37'4 3.5
2016-May-21 17:29N 44°50' E 036°37'0 0.0
2016-May-21 16:29N 44°50' E 036°37'0 0.0
2016-May-21 15:32N 44°50' E 036°37'0 0.0
2016-May-21 14:32N 44°50' E 036°37'0 0.0
2016-May-21 13:32N 44°50' E 036°37'0 0.0
2016-May-21 12:32N 44°50' E 036°37'0 0.0
2016-May-21 11:23N 44°50' E 036°37'0 0.0
2016-May-21 10:32N 44°50' E 036°37'0 0.1
2016-May-21 09:17N 44°50' E 036°37'0 0.0
2016-May-21 08:11N 44°50' E 036°37'0 0.0
2016-May-21 07:17N 44°50' E 036°37'0 0.0
2016-May-21 06:29N 44°50' E 036°37'  
2016-May-17 12:29N 44°50' E 036°37'36 5.7
2016-May-17 06:08N 44°15' E 036°25'813.6
2016-May-17 05:30N 44°11' E 036°16'  

Dump ship's entire track history